Location: New Frontier Mobile Home Park
(32.8448°N, 116.9675°W)
Time: 23:09:32
(UTC+00:00)

Cosmos 1782 Rocket - Pass Details

Date: 14 July 2020
Orbit: 606 x 633 km, 82.5° (Epoch: 05 August)

Event Time Altitude Azimuth Distance (km) Brightness Sun altitude
Exits shadow 10:58:57 31° 171° (S) 1,114 4.5 -19.9°
Maximum altitude 11:01:02 71° 95° (E) 666 3.7 -19.6°
Drops below altitude 10° 11:05:27 10° 11° (NNE) 2,000 6.9 -18.9°
Sets 11:07:41 0° 10° (N) 2,906 7.9 -18.6°
